Location: Newark
(58.9986°N, 38.5006°E)
Time: 08:46:14
(UTC+00:00)

Explorer 7 - Pass Details

Date: 24 April 2021
Orbit: 484 x 677 km, 50.3° (Epoch: 11 May)

Event Time Altitude Azimuth Distance (km) Brightness Sun altitude
Rises 19:16:50 0° 256° (WSW) 2,693 10.6 -13.4°
Reaches altitude 10° 19:19:18 10° 242° (WSW) 1,835 9.5 -13.6°
Maximum altitude 19:22:42 24° 188° (S) 1,197 8.1 -13.8°
Enters shadow 19:23:45 22° 165° (SSE) 1,286 8.1 -13.8°
